Погода в Международном аэропорте имени Сирила Э. Кинга

Американские Виргинские острова     18°20′05″N   64°58′18″W
темп.,
°C
ветер,
м/с
пор.,
м/с
влажн.,
%
обл.,
%
осадки,
мм/ч
давл.,
гПа
погр.,
м
28 января, чт
чт2823:00+25всв88796 0.1 1018772
02:00+25всв887712 0.3 1016864
05:00+25всв88750 0.0 1016970
08:00+25всв78752 0.1 10171024
11:00+25в67734 0.0 10181078
14:00+25вюв66723 0.1 1015854
17:00+25вюв557230 0.0 1014740
20:00+25в436915 0.0 1015679
29 января, пт
пт2923:00+25в226795 0.0 1016676
02:00+25вюв116762 0.0 1014674
05:00+24с2267100 0.0 1014824
08:00+25с456699 0.0 10161177
11:00+25всв346294 0.0 10171021
14:00+25ссв446351 0.0 1014768
17:00+25св55640 0.0 1014863
20:00+25св56670 0.0 1015954
30 января, сб
сб3023:00+25ссв77710 0.0 1016971
02:00+25ссв78730 0.0 1015960
05:00+25св88770 0.0 1015948
08:00+25св89760 0.0 1017937
11:00+25св910793 0.0 1018980
14:00+25св910816 0.4 1017855
17:00+25св9118139 0.6 1016829
20:00+25св11128343 3.1 1017880
31 января, вс
вс3123:00+25св11138342 1.8 1018857
02:00+25всв11138225 3.0 1017963
05:00+25всв1113818 1.3 10171001
08:00+25всв10117910 2.4 10181024
11:00+25в9108022 0.8 1019901
14:00+26в897311 0.9 1017931
17:00+26всв78775 0.0 1016948
20:00+25всв910782 0.1 1017990
1 февраля, пн
пн123:00+25в911772 0.0 10171097
02:00+25в810796 0.1 10161032
05:00+25в810800 0.1 1015867
08:00+25в911808 0.1 10161030
11:00+26вюв1012774 0.6 10171105
14:00+26вюв911742 0.6 10151148
17:00+26вюв89720 0.1 10141026
20:00+26вюв89751 0.1 10151047